When you browse on this site, cookies collect data to enhance your experience and personalize the content and advertising you see.
Visit our Privacy Policy to learn more. By continuing to use the site, you agree to this use of cookies and data.
  • In Romania
  • List of Countries
  • For 7 days
  • Water Temperature
  • Satellite Maps
  • Weather Map
  • Weather Widgets
  • user-avatar
    Login

    Hourly Weather Wąbrzeźno

    Today, 22 May, Wednesday

    Time Temperature Precipitation Wind Pressure Humidity
    00:00 +15°C° 0 mm 2 mps 744 mmHg 95%
    01:00 +15°C° 0 mm 2 mps 744 mmHg 95%
    02:00 +14°C° 0 mm 2 mps 744 mmHg 95%
    03:00 +14°C° 0 mm 2 mps 744 mmHg 95%
    04:00 +13°C° 0 mm 2 mps 744 mmHg 95%
    05:00 +15°C° 0 mm 2 mps 744 mmHg 90%
    06:00 +16°C° 0 mm 2 mps 745 mmHg 86%
    07:00 +17°C° 0 mm 2 mps 745 mmHg 81%
    08:00 +18°C° 0 mm 3 mps 745 mmHg 75%
    09:00 +19°C° 0 mm 3 mps 745 mmHg 68%
    10:00 +21°C° 0 mm 3 mps 746 mmHg 62%
    11:00 +21°C° 0 mm 3 mps 746 mmHg 60%
    12:00 +22°C° 0 mm 3 mps 746 mmHg 57%
    13:00 +24°C° 0 mm 3 mps 746 mmHg 55%
    14:00 +24°C° 0 mm 3 mps 746 mmHg 56%
    15:00 +24°C° 0 mm 3 mps 746 mmHg 58%
    16:00 +24°C° 0 mm 3 mps 745 mmHg 59%
    17:00 +22°C° 0.4 mm 3 mps 746 mmHg 66%
    18:00 +20°C° 0.4 mm 2 mps 746 mmHg 74%
    19:00 +19°C° 0.4 mm 2 mps 746 mmHg 82%
    20:00 +18°C° 0.1 mm 2 mps 746 mmHg 85%
    21:00 +17°C° 0.1 mm 2 mps 747 mmHg 89%
    22:00 +14°C° 0.1 mm 3 mps 747 mmHg 92%
    23:00 +14°C° 0.2 mm 3 mps 747 mmHg 94%

    Tomorrow, 23 May, Thursday

    Time Temperature Precipitation Wind Pressure Humidity
    00:00 +14°C° 0.2 mm 4 mps 747 mmHg 96%
    01:00 +14°C° 0.2 mm 4 mps 748 mmHg 97%
    02:00 +13°C° 0.3 mm 4 mps 748 mmHg 97%
    03:00 +13°C° 0.3 mm 4 mps 748 mmHg 96%
    04:00 +13°C° 0.3 mm 4 mps 748 mmHg 96%
    05:00 +14°C° 0.1 mm 4 mps 749 mmHg 94%
    06:00 +14°C° 0.1 mm 4 mps 749 mmHg 93%
    07:00 +14°C° 0.1 mm 4 mps 749 mmHg 91%
    08:00 +14°C° 0 mm 4 mps 750 mmHg 89%
    09:00 +14°C° 0 mm 4 mps 750 mmHg 87%
    10:00 +15°C° 0 mm 4 mps 750 mmHg 86%
    11:00 +15°C° 0 mm 4 mps 750 mmHg 84%
    12:00 +15°C° 0 mm 4 mps 751 mmHg 82%
    13:00 +15°C° 0 mm 4 mps 751 mmHg 80%
    14:00 +15°C° 0 mm 4 mps 751 mmHg 78%
    15:00 +15°C° 0 mm 5 mps 751 mmHg 76%
    16:00 +15°C° 0 mm 5 mps 751 mmHg 74%
    17:00 +15°C° 0 mm 4 mps 751 mmHg 74%
    18:00 +14°C° 0 mm 4 mps 751 mmHg 74%
    19:00 +14°C° 0 mm 3 mps 751 mmHg 74%
    20:00 +13°C° 0 mm 3 mps 751 mmHg 70%
    21:00 +12°C° 0 mm 3 mps 752 mmHg 66%
    22:00 +11°C° 0 mm 4 mps 752 mmHg 61%
    23:00 +9°C° 0 mm 3 mps 752 mmHg 68%

    Day after tomorrow, 24 May, Friday

    Time Temperature Precipitation Wind Pressure Humidity
    00:00 +8°C° 0 mm 3 mps 752 mmHg 75%
    01:00 +7°C° 0 mm 3 mps 752 mmHg 82%
    02:00 +7°C° 0 mm 3 mps 752 mmHg 85%
    03:00 +7°C° 0 mm 3 mps 752 mmHg 89%
    04:00 +7°C° 0 mm 3 mps 751 mmHg 93%
    05:00 +9°C° 0 mm 3 mps 751 mmHg 88%
    06:00 +10°C° 0 mm 3 mps 751 mmHg 83%
    07:00 +12°C° 0 mm 3 mps 751 mmHg 78%
    08:00 +14°C° 0 mm 3 mps 751 mmHg 73%
    09:00 +15°C° 0 mm 4 mps 751 mmHg 69%
    10:00 +18°C° 0 mm 4 mps 751 mmHg 65%
    11:00 +19°C° 0 mm 3 mps 751 mmHg 63%
    12:00 +19°C° 0 mm 3 mps 751 mmHg 61%
    13:00 +20°C° 0 mm 3 mps 751 mmHg 59%
    14:00 +20°C° 0.2 mm 3 mps 750 mmHg 61%
    15:00 +20°C° 0.2 mm 3 mps 750 mmHg 62%
    16:00 +20°C° 0.2 mm 4 mps 750 mmHg 64%
    17:00 +19°C° 0.2 mm 3 mps 749 mmHg 70%
    18:00 +17°C° 0.2 mm 3 mps 749 mmHg 76%
    19:00 +16°C° 0.2 mm 2 mps 749 mmHg 82%
    20:00 +15°C° 0 mm 2 mps 749 mmHg 84%
    21:00 +14°C° 0 mm 1 mps 749 mmHg 87%
    22:00 +12°C° 0 mm 1 mps 749 mmHg 89%
    23:00 +12°C° 0 mm 1 mps 749 mmHg 90%

    25 May, Saturday

    Time Temperature Precipitation Wind Pressure Humidity
    00:00 +12°C° 0 mm 2 mps 749 mmHg 91%
    01:00 +12°C° 0 mm 2 mps 748 mmHg 92%
    02:00 +10°C° 0 mm 2 mps 748 mmHg 93%
    03:00 +10°C° 0 mm 3 mps 748 mmHg 93%
    04:00 +10°C° 0 mm 3 mps 748 mmHg 93%
    05:00 +11°C° 0 mm 3 mps 748 mmHg 88%
    06:00 +12°C° 0 mm 4 mps 748 mmHg 83%
    07:00 +13°C° 0 mm 4 mps 748 mmHg 78%
    08:00 +13°C° 0 mm 5 mps 748 mmHg 77%
    09:00 +13°C° 0 mm 5 mps 748 mmHg 76%
    10:00 +13°C° 0 mm 5 mps 749 mmHg 74%
    11:00 +13°C° 0.1 mm 5 mps 749 mmHg 75%
    12:00 +13°C° 0.1 mm 5 mps 749 mmHg 75%
    13:00 +13°C° 0.1 mm 5 mps 749 mmHg 76%
    14:00 +13°C° 0.1 mm 5 mps 749 mmHg 77%
    15:00 +12°C° 0.1 mm 5 mps 749 mmHg 79%
    16:00 +12°C° 0.1 mm 5 mps 749 mmHg 80%
    17:00 +12°C° 0 mm 4 mps 748 mmHg 81%
    18:00 +12°C° 0 mm 4 mps 748 mmHg 83%
    19:00 +11°C° 0 mm 4 mps 748 mmHg 84%
    20:00 +11°C° 0 mm 4 mps 748 mmHg 85%
    21:00 +11°C° 0 mm 4 mps 748 mmHg 86%
    22:00 +10°C° 0 mm 4 mps 748 mmHg 87%
    23:00 +10°C° 0 mm 4 mps 748 mmHg 87%

    26 May, Sunday

    Time Temperature Precipitation Wind Pressure Humidity
    00:00 +9°C° 0 mm 5 mps 747 mmHg 88%
    01:00 +9°C° 0 mm 5 mps 747 mmHg 88%
    02:00 +9°C° 0.1 mm 5 mps 747 mmHg 89%
    03:00 +10°C° 0.1 mm 4 mps 747 mmHg 91%
    04:00 +10°C° 0.1 mm 4 mps 747 mmHg 92%
    05:00 +9°C° 0.1 mm 5 mps 747 mmHg 89%
    06:00 +9°C° 0.1 mm 6 mps 746 mmHg 86%
    07:00 +9°C° 0.1 mm 6 mps 746 mmHg 83%
    08:00 +9°C° 0.2 mm 6 mps 746 mmHg 83%
    09:00 +9°C° 0.2 mm 7 mps 746 mmHg 83%
    10:00 +9°C° 0.2 mm 7 mps 746 mmHg 83%
    11:00 +9°C° 0.2 mm 7 mps 746 mmHg 82%
    12:00 +9°C° 0.2 mm 7 mps 746 mmHg 82%
    13:00 +9°C° 0.2 mm 7 mps 746 mmHg 81%
    14:00 +9°C° 0.1 mm 7 mps 746 mmHg 81%
    15:00 +9°C° 0.1 mm 6 mps 746 mmHg 80%
    16:00 +9°C° 0.1 mm 6 mps 746 mmHg 80%
    17:00 +9°C° 0.1 mm 6 mps 746 mmHg 80%
    18:00 +9°C° 0.1 mm 5 mps 746 mmHg 80%
    19:00 +9°C° 0.1 mm 5 mps 746 mmHg 80%
    20:00 +8°C° 0 mm 5 mps 746 mmHg 80%
    21:00 +8°C° 0 mm 4 mps 746 mmHg 80%
    22:00 +8°C° 0 mm 4 mps 746 mmHg 80%
    23:00 +7°C° 0 mm 4 mps 746 mmHg 83%

    27 May, Monday

    Time Temperature Precipitation Wind Pressure Humidity
    00:00 +6°C° 0 mm 4 mps 747 mmHg 86%
    01:00 +5°C° 0 mm 4 mps 747 mmHg 90%
    02:00 +5°C° 0 mm 4 mps 747 mmHg 91%
    03:00 +5°C° 0 mm 4 mps 747 mmHg 93%
    04:00 +4°C° 0 mm 4 mps 747 mmHg 95%
    05:00 +6°C° 0 mm 4 mps 747 mmHg 89%
    06:00 +8°C° 0 mm 4 mps 747 mmHg 83%
    07:00 +10°C° 0 mm 4 mps 747 mmHg 78%
    08:00 +11°C° 0 mm 4 mps 747 mmHg 78%
    09:00 +12°C° 0 mm 4 mps 747 mmHg 78%
    10:00 +14°C° 0 mm 5 mps 747 mmHg 78%
    11:00 +14°C° 0.3 mm 5 mps 747 mmHg 80%
    12:00 +15°C° 0.3 mm 5 mps 746 mmHg 82%
    13:00 +15°C° 0.3 mm 5 mps 746 mmHg 85%
    14:00 +16°C° 1 mm 6 mps 745 mmHg 84%
    15:00 +16°C° 1 mm 6 mps 745 mmHg 84%
    16:00 +17°C° 1 mm 6 mps 745 mmHg 84%
    17:00 +16°C° 0.1 mm 5 mps 745 mmHg 85%
    18:00 +16°C° 0.1 mm 3 mps 745 mmHg 87%
    19:00 +15°C° 0.1 mm 2 mps 746 mmHg 89%
    20:00 +14°C° 0 mm 2 mps 746 mmHg 91%
    21:00 +12°C° 0 mm 3 mps 747 mmHg 94%
    22:00 +11°C° 0 mm 3 mps 747 mmHg 96%
    23:00 +10°C° 0 mm 3 mps 748 mmHg 96%
    Show more